GFSSE_sfc_wetblb_273.txt.gz
Wetbulb
73.47 76.64 77.99 77.61 77.26 77.43 77.28 75.74 75.19 74.74 74.14 73.53 73.15 73.10 73.61 73.99 73.98 73.34 72.90 73.27 73.90 72.99 72.40 72.91 72.93 72.61 72.04 72.17 71.91 71.68 71.37 71.06 70.72 70.48 70.62 70.47 70.58 70.66 70.01 69.44 68.67 66.27 68.21
74.43 76.07 77.68 77.58 77.66 77.76 76.93 75.57 75.45 75.35 74.90 73.94 73.33 73.10 73.23 73.92 73.38 73.91 73.73 73.92 73.96 72.90 72.70 72.28 71.84 71.27 71.09 71.00 71.19 71.57 71.49 71.33 71.23 71.22 70.45 70.18 70.11 69.68 69.43 68.99 68.34 66.98 68.92
74.35 75.50 76.28 77.43 77.79 77.58 76.78 76.22 75.94 75.64 75.02 74.22 73.71 73.54 73.94 74.52 73.88 73.78 74.42 74.28 73.63 73.28 73.00 72.81 72.88 72.91 72.30 71.32 70.46 70.27 70.57 70.96 71.14 71.35 70.84 66.75 67.11 69.44 69.09 68.69 68.23 67.76 68.04
74.50 74.47 74.99 77.43 77.56 77.20 76.55 76.29 76.04 75.72 75.05 74.15 73.92 73.71 73.96 74.32 74.64 74.31 74.76 74.58 73.55 73.46 73.24 72.91 72.59 72.16 71.48 70.79 70.59 70.67 69.98 69.58 69.81 70.51 69.13 67.47 67.49 69.52 69.35 69.12 68.76 68.02 67.83
73.63 74.64 75.45 76.50 77.05 77.03 76.45 76.24 76.09 75.69 75.37 74.57 73.87 73.91 73.99 74.12 74.87 74.82 74.74 74.65 73.72 73.33 72.96 72.31 71.69 71.28 71.21 71.33 71.55 71.97 71.92 71.41 71.24 71.29 67.54 64.91 65.78 69.21 69.17 69.03 68.48 68.13 67.18
73.25 74.83 76.07 76.30 76.73 76.82 76.38 76.25 76.11 75.54 75.70 74.90 74.11 73.84 73.94 74.02 74.90 74.77 74.62 74.48 73.51 72.61 72.13 71.85 71.54 71.45 71.57 72.00 72.81 72.27 72.17 73.12 71.97 68.07 65.86 68.00 65.76 69.94 69.93 68.94 68.11 67.83 67.29
73.30 75.15 75.83 76.82 76.87 76.75 76.25 75.92 75.99 75.89 75.77 75.60 74.67 74.06 73.97 74.00 74.47 74.47 74.42 74.13 73.37 72.47 72.01 71.65 71.20 71.91 72.46 72.51 72.86 73.20 73.20 71.78 68.69 66.38 66.35 65.70 66.30 70.58 69.52 68.97 68.28 67.77 67.25
73.05 74.65 75.32 76.70 76.57 76.29 76.40 76.32 76.29 76.16 75.97 75.62 75.60 75.07 74.60 74.32 74.42 74.40 74.29 74.13 73.69 73.13 72.60 72.07 72.25 72.87 72.98 73.13 73.40 73.38 73.57 72.70 70.43 68.67 67.65 65.54 69.61 70.70 70.29 69.46 68.62 67.96 67.59
72.43 73.38 74.25 75.18 75.66 76.32 76.14 76.18 76.15 76.02 76.01 75.78 75.64 75.36 75.26 75.12 74.84 74.67 74.47 74.37 74.14 73.94 73.92 73.84 73.62 73.68 73.78 73.72 74.02 74.34 74.59 73.70 70.18 70.11 68.61 66.83 71.00 71.15 70.58 69.89 69.09 68.40 67.82
71.15 72.04 71.59 73.33 74.13 74.15 74.85 76.18 76.25 76.15 76.10 75.87 75.72 75.65 75.37 75.31 75.41 75.36 74.76 74.94 74.95 74.72 74.70 74.55 74.47 74.50 74.27 74.14 74.01 74.24 74.25 74.04 70.61 69.72 69.29 66.85 71.79 71.47 71.00 70.38 69.80 69.04 68.31
69.47 70.01 70.71 71.38 71.77 72.50 73.51 74.72 75.85 75.62 75.99 76.12 75.87 75.87 74.87 72.84 73.14 73.74 74.65 75.08 75.59 75.37 75.02 74.89 75.04 74.96 75.01 75.13 75.15 75.13 74.67 71.30 70.13 69.85 70.51 72.74 72.41 72.34 71.69 70.80 70.27 69.66 68.93
67.54 68.84 70.12 70.03 70.62 70.87 73.98 73.53 72.93 73.09 73.06 73.25 72.97 73.22 72.72 71.66 70.91 73.06 73.95 75.12 75.60 75.54 75.39 75.31 75.21 75.51 75.51 73.68 72.80 74.51 73.77 71.57 70.27 70.52 71.34 74.10 73.20 73.04 72.61 71.45 70.79 70.33 69.59
68.20 68.91 69.55 69.32 69.73 69.57 71.54 72.71 72.23 71.80 71.94 71.80 71.04 71.35 71.43 71.64 69.72 72.55 71.79 72.96 73.01 74.74 73.51 74.13 73.57 73.87 72.92 72.65 71.99 70.71 72.35 71.65 70.50 71.02 72.39 74.61 73.70 73.69 73.34 72.22 71.29 70.82 70.09
68.83 68.86 69.65 69.47 69.28 69.30 71.19 70.27 70.39 70.28 70.33 70.34 70.49 70.78 70.86 69.31 68.65 69.68 71.58 71.33 71.83 71.97 71.99 70.33 70.66 71.25 71.47 70.93 70.19 70.00 70.35 71.36 71.64 70.93 70.73 74.25 73.97 74.37 74.45 73.24 72.06 71.37 70.68
67.98 69.19 69.70 69.96 69.55 70.68 70.34 69.22 69.38 69.55 69.33 69.57 69.30 70.55 71.25 70.10 68.75 68.42 68.88 70.70 71.49 70.56 70.12 69.23 69.68 70.23 70.82 71.14 71.57 70.13 68.31 68.96 69.44 69.39 68.92 74.90 73.91 74.02 74.92 74.14 73.25 72.31 71.50
68.47 69.04 70.71 70.26 71.47 71.46 71.42 72.07 69.50 69.49 69.91 69.20 69.28 70.06 70.33 68.86 67.97 68.73 67.75 67.49 67.24 68.58 69.29 70.21 70.77 69.85 70.83 70.97 69.94 70.45 70.03 69.60 70.08 69.17 70.30 72.08 73.81 73.42 74.47 75.00 73.99 73.27 72.56
71.48 70.82 70.60 71.62 70.99 71.81 71.39 72.94 72.46 70.66 71.37 70.84 70.38 70.08 70.11 70.13 69.82 70.10 68.68 67.42 68.28 68.11 67.64 67.98 67.89 68.67 68.84 69.65 69.08 69.36 69.87 69.53 69.81 70.93 69.34 71.55 72.62 73.40 74.04 74.62 74.67 74.47 73.35
71.71 71.73 71.73 73.99 72.52 73.16 72.41 73.35 72.90 72.07 72.51 70.65 71.59 71.76 71.13 70.50 69.65 69.92 68.39 67.56 68.11 67.94 67.63 66.34 66.61 66.58 66.66 68.58 68.65 67.98 66.33 67.30 67.39 66.30 67.37 69.17 70.57 72.44 72.67 74.31 74.47 74.62 74.35
72.69 71.77 71.81 72.80 72.78 73.53 73.56 73.44 72.99 73.16 72.65 72.21 72.59 71.86 71.80 71.98 71.66 69.75 69.36 69.70 69.66 69.62 67.32 66.62 66.45 66.57 67.23 66.49 67.32 64.26 67.71 66.85 67.16 66.74 67.60 66.61 66.25 68.57 71.13 72.72 73.77 74.01 73.96
71.46 71.58 72.19 72.84 73.16 73.57 73.42 73.17 73.45 71.77 72.42 73.22 72.99 73.59 73.28 72.74 72.28 71.50 69.58 69.17 69.74 68.45 69.13 68.91 68.07 66.72 65.97 63.65 67.67 64.28 65.86 64.92 64.10 66.45 65.46 67.59 66.32 65.74 66.65 71.01 72.40 72.30 72.83
69.78 70.04 71.24 71.79 72.25 72.86 73.34 72.18 72.43 72.27 72.97 71.22 69.85 70.36 69.60 69.92 71.25 71.23 71.20 69.97 68.69 67.08 66.78 65.50 65.04 63.25 63.90 63.08 61.77 60.95 62.04 64.08 65.63 63.68 64.23 64.61 64.74 65.30 66.41 70.04 71.30 71.14 71.50
67.93 68.60 69.90 71.08 71.44 71.03 70.69 71.36 71.93 71.76 70.47 69.29 68.99 69.41 68.44 67.59 67.55 67.93 67.26 68.92 68.09 66.26 65.55 64.85 62.79 61.79 62.27 62.52 59.74 57.16 56.02 58.08 60.70 63.85 62.88 63.81 63.38 64.52 66.83 68.71 70.77 70.65 70.29
66.30 66.50 67.46 68.94 70.19 69.44 70.38 70.47 70.46 70.84 69.80 67.93 68.40 66.83 67.21 67.08 67.16 66.96 66.83 66.49 66.96 66.96 64.63 63.72 63.43 61.48 59.95 61.87 60.28 57.97 54.80 53.74 56.58 62.22 63.15 62.67 63.43 65.15 66.81 65.43 69.57 68.72 67.03
65.90 66.98 67.14 67.21 67.40 68.36 68.17 68.83 68.22 65.56 65.26 66.31 66.96 66.80 65.64 65.56 65.50 65.98 64.88 64.37 64.12 64.63 64.14 65.33 66.36 64.51 61.99 60.77 61.17 62.77 60.41 58.28 55.96 55.18 59.56 62.95 65.47 63.15 63.66 65.43 64.92 68.48 68.75
64.36 63.93 64.63 64.30 64.83 65.85 65.65 66.70 66.81 65.86 66.40 66.85 66.60 66.03 64.16 62.98 62.59 63.35 63.90 62.73 61.75 61.79 61.76 61.65 63.03 64.05 65.61 64.42 63.72 61.60 61.48 60.94 60.56 58.55 57.86 61.56 63.46 64.63 65.63 63.82 64.57 64.10 64.44
62.16 61.58 61.72 60.94 60.67 61.52 63.03 63.27 62.54 61.06 61.02 60.52 58.71 60.33 61.04 59.34 59.55 59.57 60.10 59.25 58.03 57.92 59.23 59.72 60.25 59.90 61.37 61.26 62.31 61.91 61.26 60.64 60.05 60.44 60.18 61.43 60.95 61.75 64.98 62.83 63.09 63.17 66.29

GFSSE_sfc_wetblb_276.txt.gz
Wetbulb
74.37 76.20 77.41 77.16 77.16 76.66 75.22 74.95 74.42 73.84 73.26 73.11 73.67 73.95 73.54 73.29 73.28 72.62 72.73 72.99 73.48 73.15 73.32 73.01 72.44 72.07 72.23 72.50 72.12 71.60 71.18 70.75 70.84 70.86 71.13 70.74 70.52 70.08 69.28 68.75 68.19 66.22 68.34
74.39 75.96 77.19 77.16 77.29 76.25 75.04 75.00 74.45 73.82 73.42 73.08 73.24 73.39 72.83 73.31 73.05 73.08 72.94 73.11 73.05 72.69 72.24 71.79 71.74 71.54 71.72 72.31 72.27 72.09 71.75 71.44 70.97 70.53 70.37 70.39 70.34 69.74 68.96 68.69 68.50 67.55 68.73
74.70 75.74 75.95 77.21 77.44 75.88 75.20 75.03 74.45 73.75 73.48 73.47 73.14 72.96 73.11 73.54 73.54 73.48 73.84 74.18 73.14 72.89 72.73 72.82 72.86 72.49 71.81 71.22 70.98 71.38 71.61 71.25 71.21 71.16 69.33 66.22 66.37 69.19 68.65 68.19 67.87 68.41 68.27
74.85 75.07 75.42 77.36 77.21 76.00 75.38 75.10 74.70 73.83 73.55 73.60 73.65 73.67 73.90 73.97 73.89 73.71 73.96 73.72 73.47 73.36 73.11 72.74 72.45 71.93 71.11 70.98 70.86 70.29 70.00 70.20 70.82 70.83 67.95 67.06 67.27 69.80 69.55 68.86 68.24 67.85 67.61
73.70 74.51 75.57 77.45 77.05 76.38 75.38 75.13 74.88 74.28 73.90 73.68 73.79 73.87 74.02 74.00 74.27 74.70 74.57 74.18 73.54 73.14 72.63 71.90 71.28 71.08 71.21 71.10 71.04 70.81 70.94 71.18 71.27 71.10 67.39 64.72 65.58 68.96 69.41 69.38 68.55 67.65 67.03
73.16 73.98 76.70 77.17 76.90 76.45 75.38 75.13 74.85 74.40 74.23 73.92 73.97 74.10 73.97 74.07 74.05 74.60 74.47 74.25 73.22 72.61 72.15 71.75 71.15 71.08 71.42 71.62 72.29 72.77 71.56 71.22 71.39 66.05 66.77 65.52 65.76 70.13 69.87 68.74 67.96 67.62 67.55
73.34 74.13 75.09 76.94 76.90 76.20 75.40 75.15 75.13 74.85 74.63 74.48 73.90 73.95 73.95 73.98 73.98 74.25 74.00 73.18 72.67 72.23 72.00 71.48 70.95 70.95 71.52 72.20 72.60 73.26 73.53 72.66 68.94 65.80 65.15 66.21 65.51 71.18 69.66 68.73 68.53 67.94 67.58
73.53 74.13 74.73 76.40 76.75 76.17 75.90 75.70 75.64 75.59 75.22 74.60 74.30 74.05 73.75 73.88 73.80 73.68 73.88 73.57 73.02 72.53 71.87 71.52 71.60 72.20 72.69 73.18 73.56 73.95 73.98 73.46 70.88 68.30 65.40 64.51 67.67 70.73 69.95 69.27 68.70 68.14 67.55
74.02 74.01 74.14 74.72 75.26 76.07 76.01 76.00 75.83 75.87 75.63 75.38 75.03 74.72 74.30 73.66 73.85 74.00 74.13 73.98 73.60 73.43 73.38 73.05 73.20 73.38 73.63 73.78 73.78 73.80 73.70 73.19 69.55 69.94 66.97 65.37 70.44 70.84 70.61 69.87 69.17 68.71 68.22
73.13 73.47 73.42 73.49 73.04 73.35 74.16 75.62 75.71 75.63 75.75 75.52 75.22 74.93 74.80 74.40 74.32 74.37 73.86 74.25 74.13 74.08 74.20 74.45 74.27 74.42 74.21 74.09 74.11 74.17 73.98 73.79 69.60 69.39 69.70 66.54 71.40 71.68 71.39 70.62 69.86 69.18 68.69
71.34 72.33 72.94 72.72 72.66 72.84 73.12 74.17 75.48 75.40 75.17 75.26 74.96 75.08 74.44 72.47 72.84 73.62 74.08 74.29 74.72 74.90 74.94 75.02 74.87 74.61 74.73 74.68 74.93 75.03 74.95 71.86 69.56 69.48 70.67 69.49 72.04 72.44 72.20 71.06 70.40 69.82 69.31
68.31 69.96 71.97 72.30 72.42 72.65 73.61 72.45 72.51 72.64 72.93 73.44 73.39 72.96 72.27 71.43 70.71 73.00 73.81 74.84 75.17 75.39 75.24 74.94 74.94 74.99 75.06 72.86 72.42 73.28 71.94 72.25 70.42 69.56 69.67 72.94 73.06 73.03 72.92 71.90 71.14 70.56 69.97
67.25 68.70 70.29 71.30 71.90 71.93 72.17 72.47 72.00 71.63 71.95 72.27 71.99 71.57 71.34 71.49 70.26 71.66 71.14 72.41 72.76 74.60 73.00 73.41 73.04 73.10 72.51 71.98 71.81 71.03 70.30 71.30 71.00 70.01 70.44 73.93 74.20 73.54 73.77 72.92 71.74 71.08 70.56
66.84 67.70 69.10 69.82 70.19 70.68 71.28 71.93 71.32 71.12 70.98 70.62 70.68 69.96 69.90 68.74 68.20 68.16 70.27 70.68 71.15 71.74 71.73 71.78 70.59 70.68 70.60 71.30 70.83 69.80 69.39 70.34 70.29 70.43 71.35 72.96 74.54 74.25 74.99 74.34 72.61 71.77 71.15
66.97 67.78 68.48 68.83 68.70 69.22 70.44 70.09 69.78 69.85 70.27 69.88 69.30 69.56 70.13 68.38 67.39 67.15 67.85 70.35 70.61 70.64 70.62 69.97 69.43 68.05 69.09 70.06 70.49 70.39 68.30 69.08 68.73 68.92 68.29 71.58 73.66 74.13 74.78 74.67 73.84 72.68 71.97
67.51 67.63 68.62 68.31 68.09 68.25 69.58 67.94 68.31 68.75 68.76 67.62 67.86 68.70 69.92 69.38 68.47 67.37 66.31 67.57 69.15 69.38 69.60 68.98 68.30 68.27 68.41 69.61 70.92 70.57 69.65 69.56 69.83 69.11 69.57 68.45 72.72 73.92 73.87 74.32 74.59 73.85 72.96
66.32 67.76 68.00 68.12 68.83 68.63 68.87 68.06 67.82 68.15 68.21 67.01 67.75 67.69 69.00 69.34 67.67 66.93 67.29 66.15 66.24 66.55 66.43 66.04 67.05 66.80 67.25 68.80 68.91 69.24 69.50 69.58 69.74 70.31 68.71 70.74 69.95 71.03 71.54 72.23 72.92 73.23 73.93
67.99 68.06 68.25 69.94 70.25 69.49 70.00 71.03 71.05 69.82 68.97 69.03 68.78 68.29 68.73 69.03 68.86 68.38 67.38 66.80 66.98 66.76 66.60 65.49 64.76 64.70 66.03 67.21 66.40 66.45 66.14 66.92 67.45 66.87 66.87 68.65 68.43 71.08 70.60 69.73 68.49 70.30 73.06
69.73 70.27 70.02 70.30 70.10 69.75 70.24 72.14 71.38 71.66 71.03 70.73 70.11 70.05 70.15 69.71 70.18 68.69 69.00 68.49 68.37 68.51 68.07 68.27 67.30 66.49 65.72 64.55 64.90 63.95 66.04 65.92 66.20 67.21 67.01 65.89 66.59 67.10 67.39 67.13 67.06 68.34 69.30
70.90 71.32 71.38 71.88 72.09 72.46 72.48 72.12 71.65 70.98 70.60 69.42 69.15 69.56 71.52 72.00 72.11 71.35 69.65 68.63 68.72 67.37 65.65 64.86 64.92 64.74 63.92 62.63 66.92 65.32 63.60 64.55 63.83 63.80 64.20 65.38 65.89 65.29 65.52 65.96 65.24 67.66 69.71
69.16 70.24 70.47 70.41 70.30 71.40 71.66 71.93 71.80 69.31 68.13 68.38 68.31 67.40 67.68 68.49 68.57 68.90 69.08 68.85 66.90 65.29 64.53 63.89 63.08 62.36 62.52 62.34 60.94 60.52 60.82 62.24 61.86 63.94 63.28 63.14 64.22 65.30 64.98 65.40 65.66 66.94 67.69
67.12 67.80 68.61 68.87 68.98 69.71 70.65 70.69 70.53 68.11 68.16 67.12 66.54 66.54 66.31 66.89 67.66 66.90 66.81 66.49 67.18 65.54 64.66 63.90 62.31 60.51 60.65 61.54 58.98 56.82 55.20 57.17 58.71 61.91 62.34 62.00 62.01 64.36 65.54 67.34 66.41 66.23 69.21
65.15 66.11 66.72 67.17 67.35 68.51 69.93 70.23 69.51 68.65 66.78 65.70 65.45 64.76 65.92 66.07 66.19 65.12 64.89 64.94 64.12 63.72 63.43 63.81 64.45 62.66 61.20 61.28 61.80 57.75 54.42 52.64 55.48 58.87 61.47 61.80 62.35 62.91 64.85 65.89 65.79 65.14 66.01
65.03 66.00 65.60 65.89 66.12 67.48 68.40 67.48 67.04 65.61 64.73 64.90 64.55 64.21 63.66 65.23 65.01 64.94 63.63 62.59 62.35 61.53 60.07 61.60 62.52 62.90 62.18 62.62 63.45 62.08 60.60 60.67 57.91 57.14 58.15 60.46 64.12 63.75 63.32 64.08 64.93 64.97 65.42
64.79 63.62 63.15 63.80 64.25 64.79 65.37 66.27 65.86 65.01 65.66 65.47 63.17 60.91 59.40 60.47 61.19 60.96 60.06 57.83 56.76 57.18 58.81 58.51 58.35 57.79 60.13 61.94 62.26 61.56 61.66 60.62 60.42 59.42 57.92 58.06 61.43 63.74 65.07 64.55 63.68 63.93 65.21
61.88 60.77 60.13 60.33 60.78 62.31 62.52 61.23 61.51 60.52 59.41 61.85 60.21 58.85 57.71 56.44 56.23 56.20 56.19 55.72 54.97 54.22 55.56 55.90 56.36 56.39 56.78 57.32 58.14 60.56 60.33 60.34 59.74 59.42 58.51 58.58 59.39 62.05 63.09 64.00 62.72 63.36 64.40

GFSSE_sfc_wetblb_279.txt.gz
Wetbulb
72.85 75.61 76.75 76.31 76.12 74.81 74.58 73.78 73.13 72.76 73.24 73.71 73.83 73.41 73.41 72.80 72.46 72.56 72.92 72.92 73.46 73.30 72.72 72.25 71.86 72.63 72.56 72.19 71.68 71.13 71.00 70.96 70.97 71.14 70.67 70.72 70.08 69.35 68.76 68.53 68.04 66.47 67.62
73.96 75.46 76.82 76.77 75.97 74.91 74.66 73.96 73.36 72.86 72.91 73.46 73.14 72.73 72.68 72.57 72.80 72.74 72.76 73.01 72.92 72.52 72.04 71.75 72.15 72.59 72.79 72.68 72.18 71.83 71.53 71.04 70.54 70.39 70.41 70.20 70.00 69.06 68.82 68.89 68.60 67.54 68.19
74.37 75.02 75.59 77.09 75.91 74.96 74.71 73.97 73.42 73.02 72.74 72.99 72.58 72.68 72.98 73.06 72.97 73.00 73.07 73.08 72.54 72.46 72.69 72.99 72.55 71.96 71.90 72.16 72.05 71.77 71.50 71.20 71.38 69.86 69.17 65.77 66.06 68.80 68.48 68.53 68.66 68.38 68.47
74.38 74.34 74.69 77.09 76.04 75.06 74.72 73.87 73.27 73.17 72.92 72.76 72.81 72.99 73.16 73.33 73.26 73.41 73.25 73.23 73.20 73.09 73.02 72.68 72.08 71.64 71.59 71.23 70.64 69.91 70.03 70.16 70.33 70.34 66.01 66.53 67.20 69.14 68.61 68.15 68.36 67.93 67.57
73.86 73.79 74.75 76.86 76.11 75.11 74.79 73.94 73.52 73.39 73.27 73.17 73.31 73.54 73.69 73.64 73.51 73.87 73.51 73.32 73.17 72.85 72.41 71.74 71.37 71.49 71.36 71.49 70.89 70.44 70.55 70.87 71.17 70.98 67.09 65.15 64.95 68.55 69.26 68.85 68.01 67.59 67.25
73.27 73.20 76.02 76.86 76.19 75.04 74.72 74.24 73.67 73.49 73.47 73.54 73.64 73.64 73.72 73.64 73.62 73.87 73.41 73.25 72.91 72.16 71.85 71.26 71.10 71.24 71.37 71.55 71.81 71.81 70.70 70.50 70.97 65.41 66.75 65.74 65.18 69.23 69.72 68.65 68.64 67.86 67.37
72.58 73.75 75.08 76.73 76.04 75.09 74.84 74.44 74.02 73.89 73.62 73.74 73.74 73.84 73.87 73.59 73.59 73.47 73.34 72.90 72.44 72.03 71.42 70.85 70.57 70.69 70.83 71.26 71.71 72.10 72.27 72.44 69.30 66.42 65.53 65.15 65.29 70.36 70.29 68.67 68.48 68.01 67.78
72.57 73.70 74.58 76.23 75.98 75.48 75.11 74.61 74.54 74.26 73.92 73.59 73.64 73.67 73.67 73.57 73.44 73.32 73.12 72.71 72.39 71.83 71.45 71.24 71.29 71.61 72.48 72.82 72.90 73.25 72.77 73.01 70.62 68.53 64.98 64.99 67.16 70.75 70.16 69.24 68.81 68.47 67.85
72.85 73.12 73.21 74.03 74.62 75.41 75.45 75.13 74.78 74.50 74.08 74.18 74.30 74.30 73.74 73.49 73.42 73.20 73.20 72.84 72.56 72.54 72.14 72.26 72.42 72.90 73.34 73.49 73.64 73.69 73.42 72.93 69.36 69.25 65.84 64.31 68.61 70.77 70.74 70.00 69.48 68.62 68.06
72.33 73.04 72.28 73.04 72.79 72.98 73.07 74.91 74.75 74.65 74.45 74.37 73.98 73.69 73.78 73.32 73.24 73.30 73.62 73.66 72.99 72.84 73.12 73.39 73.57 74.11 73.98 73.93 73.80 74.05 73.79 74.04 69.56 68.62 69.13 67.06 68.95 71.21 71.80 70.85 70.22 69.58 68.85
70.96 71.67 72.65 72.80 71.73 72.18 72.40 73.53 74.79 74.79 74.78 74.55 74.07 74.06 73.76 71.54 71.52 72.33 73.18 73.24 73.47 73.64 74.09 74.29 74.55 74.60 74.45 74.49 74.59 74.82 74.81 72.15 70.32 69.03 68.60 70.86 70.92 71.66 72.40 71.92 70.91 70.37 69.69
69.05 70.24 71.23 71.80 72.11 71.88 73.02 71.84 72.06 72.10 72.12 72.61 72.56 71.92 71.53 70.44 70.33 72.60 73.16 74.08 74.11 74.34 75.12 75.02 74.90 74.80 74.00 72.38 71.86 73.17 71.15 71.08 71.10 70.50 69.30 71.93 71.76 72.22 73.15 72.91 71.73 70.89 70.18
68.75 70.12 71.01 71.29 71.51 71.13 71.01 71.10 71.75 71.08 70.56 71.82 71.32 70.76 70.26 70.63 69.45 70.35 70.39 70.88 71.45 73.17 72.57 72.63 72.18 71.72 71.28 71.40 71.50 70.85 70.03 69.43 70.43 70.73 70.76 72.70 73.89 73.59 73.56 74.23 72.62 71.71 70.90
66.92 69.00 70.75 71.13 70.78 70.55 70.07 71.03 70.71 70.46 70.19 70.51 69.81 69.60 68.93 68.43 67.91 67.93 69.15 69.67 69.65 70.64 70.82 71.05 70.84 70.48 70.59 70.74 70.45 70.20 68.92 68.87 70.19 70.16 70.26 72.82 73.75 74.54 74.40 74.73 73.71 72.62 71.61
65.60 67.14 69.05 70.33 69.99 70.28 68.52 70.15 69.72 69.92 70.24 69.56 68.88 68.88 68.59 67.70 66.87 66.78 67.42 68.18 69.15 70.03 70.05 69.87 69.94 69.80 67.96 68.39 69.59 69.95 69.31 67.84 68.16 68.58 67.71 70.52 72.89 74.25 74.61 74.78 74.83 73.66 72.63
66.02 65.70 67.90 68.43 68.86 69.04 68.59 68.61 68.84 69.13 68.65 68.27 68.02 68.37 68.82 68.50 67.73 67.06 66.27 66.45 68.18 69.17 69.65 69.19 68.82 67.97 67.35 67.44 68.28 70.14 69.60 68.86 68.95 69.36 68.13 67.55 71.48 72.55 74.53 75.01 75.08 74.51 73.81
66.36 66.31 67.06 67.00 67.34 67.53 67.97 67.79 65.92 67.06 67.67 66.82 67.09 67.62 68.20 68.73 68.11 67.36 66.40 65.52 65.61 66.23 66.01 65.86 65.05 64.89 65.05 67.07 67.69 68.51 68.96 69.20 68.98 69.18 68.11 68.97 69.60 70.91 70.85 71.44 72.50 73.00 71.17
66.01 66.06 67.18 68.30 66.68 66.11 67.29 67.10 66.33 66.49 66.39 66.68 66.50 67.05 67.79 68.49 68.30 67.48 67.53 67.31 67.57 66.50 66.76 65.10 65.38 64.50 66.15 65.84 65.70 65.75 65.60 66.48 66.79 66.54 66.16 66.92 67.12 68.54 70.56 71.34 71.13 69.79 68.99
65.70 65.89 66.13 66.72 67.47 67.46 67.84 68.35 68.35 68.42 68.63 69.03 69.05 68.27 68.27 68.87 69.90 68.48 68.29 68.59 68.67 67.82 65.80 66.85 65.47 65.66 63.40 63.05 64.76 64.11 64.69 65.43 65.62 66.30 65.10 66.52 65.29 66.25 66.69 68.23 68.56 68.09 69.15
69.52 67.65 67.39 68.19 68.77 68.73 69.36 71.04 70.99 69.24 68.31 68.68 67.97 68.88 70.65 70.55 70.39 69.10 67.75 66.72 66.52 65.43 64.03 63.52 63.58 63.67 62.26 61.45 63.85 64.47 63.31 63.51 63.91 62.56 63.32 65.54 64.88 65.09 64.91 64.73 64.86 65.93 68.66
69.44 70.01 70.15 70.18 70.55 70.37 70.37 69.99 68.83 67.25 66.80 65.71 66.10 67.26 67.33 67.26 67.69 67.19 67.59 66.89 65.63 64.59 64.00 64.73 62.86 61.62 61.14 60.86 59.50 59.46 59.73 61.23 61.17 61.57 63.15 62.16 62.37 64.11 64.59 64.92 64.53 66.46 67.53
67.48 67.93 68.54 69.01 69.51 70.13 69.80 69.31 67.73 67.25 65.90 64.90 65.02 65.55 66.14 66.70 66.63 65.58 64.89 64.57 64.94 64.77 64.46 64.22 62.55 60.92 60.81 60.78 58.51 56.25 54.35 56.44 58.17 60.33 60.98 61.60 61.60 62.37 63.57 65.10 65.97 65.38 66.22
66.35 66.52 66.45 67.08 67.93 69.06 69.08 68.20 67.64 66.94 65.83 63.65 63.17 64.12 64.71 65.07 64.54 64.22 64.26 63.64 62.97 61.56 61.07 60.77 61.61 62.07 60.57 60.63 60.53 60.60 57.39 55.23 57.92 59.83 60.19 59.73 60.41 61.82 62.79 64.51 65.42 65.65 65.96
65.31 65.70 65.37 65.82 66.45 67.93 68.36 67.28 66.34 65.19 63.47 64.09 62.83 63.19 63.83 64.11 63.56 62.56 60.66 59.92 59.29 59.05 58.06 59.42 58.61 58.91 60.12 58.04 60.66 61.79 59.21 59.85 58.08 57.51 58.87 59.74 62.18 63.39 62.18 63.52 65.21 65.42 65.46
64.71 64.24 63.94 64.01 64.57 65.27 65.48 65.96 65.24 64.05 63.11 62.07 60.38 59.22 59.46 59.36 59.99 58.99 57.74 54.97 54.52 55.47 54.76 55.17 55.81 55.41 56.05 55.53 56.81 58.14 57.77 58.68 60.91 59.08 56.63 57.98 60.91 61.78 63.35 64.53 64.95 64.33 64.51
61.80 61.76 62.16 62.48 61.47 62.68 63.78 64.02 64.71 63.16 59.57 57.48 57.47 56.88 56.63 54.93 55.39 54.59 54.67 54.14 53.66 53.79 53.22 53.26 54.09 54.38 53.93 52.94 52.55 54.57 54.70 55.86 57.57 58.22 56.67 57.33 57.59 60.12 62.33 62.71 63.37 63.51 63.66

GFSSE_sfc_wetblb_285.txt.gz
Wetbulb
73.16 75.97 76.53 75.09 74.41 73.41 73.73 74.11 74.06 74.16 74.26 74.14 73.78 73.43 73.23 73.18 72.88 72.99 73.28 73.33 73.29 72.53 73.04 73.07 72.93 72.66 72.57 72.41 72.15 72.00 71.85 71.50 71.60 71.25 70.70 69.83 69.32 69.16 68.74 68.58 67.69 68.18 68.98
74.63 75.96 76.25 74.81 74.58 73.58 73.40 73.94 74.09 73.97 74.40 74.17 73.08 73.15 72.90 73.56 73.59 72.94 73.83 72.95 72.93 73.22 73.62 73.36 73.43 73.42 73.15 72.74 72.47 71.82 71.43 71.11 70.98 71.03 70.64 69.97 69.60 69.11 68.94 69.05 67.80 69.05 69.07
75.09 75.69 75.74 75.45 74.66 73.83 73.27 73.50 73.70 74.10 73.49 73.14 72.83 73.00 73.30 73.53 73.59 73.39 73.09 72.77 72.77 73.22 73.41 73.56 73.64 73.46 73.21 72.78 72.56 72.24 71.75 71.88 70.43 69.61 68.94 70.27 70.01 68.79 68.68 68.77 69.17 68.22 68.53
75.31 75.06 75.71 75.33 74.77 73.87 73.40 73.25 73.40 73.28 72.85 72.94 73.34 73.13 73.18 73.23 73.30 73.07 73.01 73.27 73.56 73.43 73.15 72.91 72.68 72.38 72.21 71.91 71.58 71.20 70.80 70.52 70.40 69.94 71.29 70.65 69.87 68.63 68.49 68.25 68.22 68.30 68.21
74.96 75.09 76.13 75.33 74.93 73.83 73.40 73.18 73.20 73.00 73.12 73.27 73.34 73.26 73.02 73.28 73.51 73.94 73.56 73.57 73.42 73.18 72.69 72.31 71.89 71.67 71.32 70.95 70.51 70.28 70.54 70.93 71.40 72.16 73.04 71.80 72.27 69.98 68.44 68.32 68.16 67.88 67.30
74.38 74.79 75.68 75.50 74.88 73.98 73.40 73.23 73.20 73.15 73.25 73.34 73.43 73.51 73.33 73.65 73.70 73.67 73.64 73.40 73.16 72.53 71.99 71.97 71.78 71.75 71.68 71.54 71.35 71.46 71.73 71.86 72.99 72.36 72.60 72.00 70.54 70.17 69.79 68.87 67.32 66.99 67.32
73.96 74.57 75.79 74.93 74.83 74.23 73.67 73.53 73.35 73.33 73.88 74.15 73.12 73.07 73.26 73.65 73.61 73.55 73.44 72.90 72.54 72.18 71.67 71.24 71.03 70.63 70.84 70.93 71.53 71.87 72.35 72.98 73.51 72.28 72.78 72.29 70.68 69.78 70.54 69.58 69.52 68.20 67.59
73.59 74.41 75.48 75.00 75.20 74.75 73.85 73.58 73.53 73.98 73.86 73.85 73.55 73.37 73.60 73.63 73.51 73.35 73.07 72.55 72.00 71.67 71.16 70.88 70.84 70.74 70.91 71.35 72.03 72.41 72.55 72.74 72.60 72.28 71.91 72.48 71.16 69.66 71.15 70.86 69.47 69.03 68.75
73.93 74.09 75.32 74.99 75.09 74.78 74.35 73.88 73.76 73.83 74.10 74.23 74.18 74.20 73.61 73.56 73.26 73.16 72.53 72.23 71.97 71.74 71.83 71.83 72.19 72.37 72.61 72.71 72.83 73.16 73.11 73.44 73.51 73.21 71.88 71.94 70.38 70.17 71.53 71.84 70.22 69.83 69.37
73.49 74.00 74.65 75.10 74.16 74.13 74.49 74.25 73.98 73.81 73.63 73.78 73.63 73.71 73.53 73.38 73.19 72.81 72.86 72.49 72.65 72.55 72.60 72.88 73.13 73.58 73.76 74.20 74.15 74.00 74.13 74.35 74.22 73.67 74.05 73.57 69.44 70.42 71.08 72.26 71.34 70.64 70.06
72.14 73.17 73.99 74.23 74.35 73.83 73.65 74.27 73.77 73.76 73.51 73.78 73.58 73.53 73.51 72.90 72.73 72.49 73.04 72.57 72.44 72.93 73.56 73.98 74.15 74.44 74.42 74.50 74.17 73.85 73.73 73.38 73.39 73.81 74.55 73.48 71.87 71.96 71.88 72.31 72.27 71.44 70.78
70.62 71.98 73.06 73.72 73.88 73.65 72.85 73.88 74.15 73.85 73.75 73.71 73.51 73.47 73.10 72.93 72.78 72.21 72.53 72.69 73.48 73.96 74.30 74.38 74.60 74.40 74.73 75.04 74.98 74.02 73.96 73.59 73.74 74.09 74.46 73.16 73.22 73.78 73.64 73.29 73.35 72.58 71.62
70.41 71.59 72.48 73.47 73.76 73.38 72.53 73.22 73.49 73.47 73.73 74.07 74.04 73.96 73.94 72.63 72.87 72.80 73.03 73.03 73.56 73.58 74.51 74.68 74.91 74.93 74.95 74.79 74.46 74.52 74.35 74.27 74.36 74.31 74.85 72.66 73.18 73.93 74.25 74.09 74.43 73.98 73.14
69.85 71.00 72.32 73.03 73.11 72.82 72.82 72.80 73.03 72.43 73.05 72.82 72.97 74.14 73.49 72.84 72.62 72.26 71.75 72.38 73.31 74.53 74.10 74.06 74.07 74.82 75.00 74.80 74.41 73.66 73.58 74.18 74.75 74.75 75.07 71.60 71.57 72.27 73.12 74.14 75.30 74.75 74.15
69.13 70.82 71.96 72.74 72.69 72.16 71.47 72.56 72.70 72.21 72.39 72.87 72.59 73.57 73.38 72.56 72.21 72.24 71.83 71.75 72.08 73.15 72.90 73.00 73.80 74.36 74.08 73.59 73.30 72.89 73.18 74.37 74.84 74.92 74.75 71.82 71.54 71.35 72.17 73.17 73.65 75.35 75.05
68.78 70.18 71.66 72.22 72.60 72.52 72.33 72.75 72.43 72.59 72.76 72.81 72.67 72.74 73.33 72.87 72.28 71.46 71.21 71.46 72.01 72.66 72.87 73.05 73.58 73.37 72.75 72.31 72.21 73.52 73.82 74.25 74.35 74.52 74.38 74.49 70.79 70.12 70.30 72.29 72.49 73.85 75.02
68.91 70.55 71.27 72.18 72.64 72.31 72.44 72.62 72.48 72.52 72.27 72.07 72.15 73.10 73.06 73.09 72.46 72.57 71.50 72.51 72.60 72.94 72.89 72.80 72.62 72.51 71.96 72.34 72.74 73.04 73.28 73.32 73.32 73.17 73.12 72.56 72.49 71.19 69.58 70.22 71.55 72.41 72.79
70.00 69.57 71.17 71.47 71.93 72.46 72.24 72.34 72.23 72.40 72.27 72.11 72.00 72.24 72.35 72.24 72.77 72.67 72.18 72.45 73.29 73.31 73.80 73.69 72.90 72.42 72.11 71.33 71.55 71.89 72.16 72.64 72.59 72.62 72.00 71.31 70.60 70.65 70.78 69.14 69.22 70.56 71.62
70.69 70.54 70.08 71.33 71.24 71.69 72.30 72.07 72.36 72.40 71.85 71.98 72.23 72.90 72.94 72.74 72.71 72.68 72.29 73.18 73.74 73.16 72.81 72.76 71.15 69.20 67.78 67.16 67.01 67.44 70.11 70.30 70.51 70.02 69.82 69.98 70.46 70.32 70.00 69.83 68.49 68.33 69.19
70.92 71.31 71.00 70.81 71.66 71.70 71.39 71.65 71.41 72.10 72.10 73.68 73.85 74.07 74.59 73.87 72.83 72.77 71.96 70.12 69.83 69.36 69.50 69.74 69.66 69.30 68.10 66.92 66.27 67.14 68.61 68.69 69.02 70.08 68.17 68.99 69.25 68.98 69.28 69.83 69.87 69.93 68.27
70.92 71.01 71.02 70.51 71.33 70.62 69.62 69.64 69.89 69.80 70.59 70.69 71.23 72.74 73.33 73.36 72.68 72.17 70.59 70.95 71.18 70.73 70.09 70.96 70.52 68.92 69.22 67.98 66.31 66.13 67.82 67.98 68.11 67.52 68.05 68.11 67.71 67.94 68.68 69.15 69.57 69.98 69.65
69.78 70.99 71.10 71.49 70.71 70.63 70.29 70.84 70.76 70.80 69.92 69.55 70.19 71.17 72.07 71.87 72.02 71.23 70.88 70.00 69.50 68.76 68.60 68.49 68.96 67.93 67.78 67.01 64.27 64.51 61.91 64.98 67.02 65.71 67.02 66.33 65.88 66.47 67.29 68.69 69.43 70.19 70.29
70.12 69.68 70.34 71.39 71.08 71.56 72.39 71.93 69.83 68.57 67.89 67.20 67.46 67.26 67.01 68.97 68.07 67.75 67.09 66.57 66.02 65.06 64.37 65.01 65.78 65.95 62.80 65.80 65.64 62.70 59.78 58.36 60.34 65.66 64.89 64.05 64.86 65.14 66.40 67.52 68.94 69.81 70.09
71.07 70.73 70.79 71.34 71.78 72.09 72.78 70.96 70.16 69.74 68.31 67.65 65.79 65.99 66.31 66.70 66.36 66.03 64.95 64.44 64.30 63.22 63.52 62.95 62.95 62.92 62.96 60.87 65.00 63.70 63.64 63.57 58.95 56.60 60.87 62.44 63.39 63.78 65.31 66.33 68.26 68.25 69.20
71.01 71.02 71.61 72.07 72.43 72.51 72.44 71.90 71.01 70.72 68.93 67.31 65.32 62.94 63.53 63.02 62.81 62.27 61.90 62.10 62.55 61.11 62.25 62.35 61.56 61.62 61.66 61.17 60.94 61.52 62.22 62.45 62.36 58.05 55.15 57.71 60.42 62.05 62.76 65.60 67.52 67.23 66.90
70.72 70.78 71.31 71.40 70.75 72.07 72.40 71.48 71.05 68.91 66.41 64.96 63.74 60.61 59.98 60.14 60.83 61.44 61.44 61.39 61.13 60.45 59.96 59.57 60.55 61.57 61.59 61.26 61.09 60.34 58.99 57.75 56.92 56.42 55.03 56.22 56.49 59.00 61.01 63.52 65.65 63.47 63.25

GFSSE_sfc_wetblb_291.txt.gz
Wetbulb
73.60 75.60 75.68 74.41 74.38 74.63 75.14 75.74 76.47 76.02 75.08 74.78 73.94 73.69 73.51 73.38 73.65 73.92 73.00 73.24 73.68 73.59 73.68 73.81 73.72 73.43 73.35 73.22 72.65 72.44 72.26 72.08 71.89 70.92 70.68 70.40 69.94 69.72 69.34 69.26 70.68 70.48 70.92
75.17 75.70 75.44 74.22 74.22 74.32 74.65 75.07 75.07 75.00 74.68 74.10 73.76 73.46 73.31 73.91 73.69 73.44 73.20 73.94 74.08 74.02 73.97 74.12 73.85 73.80 73.44 73.04 72.77 72.52 71.87 70.95 70.23 70.69 71.06 70.78 70.60 69.81 70.11 70.25 70.83 69.93 70.85
74.60 75.98 75.03 74.40 74.12 74.29 74.36 74.50 74.36 74.34 73.98 73.77 73.59 73.41 73.74 73.98 73.70 73.39 73.57 74.16 74.33 74.17 74.14 74.16 74.02 73.67 73.31 73.18 72.76 72.48 72.01 71.12 70.61 70.19 71.40 71.75 70.53 69.82 69.43 69.53 69.47 69.62 69.60
75.41 75.89 74.62 74.69 74.70 74.17 74.59 74.74 74.32 74.01 73.61 73.60 73.57 73.71 73.62 73.56 73.51 73.37 73.52 73.81 73.97 74.03 73.98 73.70 73.39 72.88 72.48 71.86 71.35 71.00 70.89 71.40 72.39 73.12 72.79 72.13 71.42 70.10 69.43 68.73 68.45 68.20 68.02
74.96 75.86 75.57 74.92 74.64 74.19 74.30 74.04 73.97 73.77 73.46 73.73 73.90 73.80 73.74 73.62 73.34 73.63 74.04 73.95 73.82 73.67 73.28 72.76 72.11 71.52 71.19 70.81 70.71 71.06 71.70 72.05 72.75 73.16 73.81 72.78 72.56 70.52 69.92 68.85 68.75 68.18 67.58
74.57 75.96 75.20 75.18 74.29 73.80 74.03 73.77 73.74 73.61 73.76 73.78 73.90 73.82 73.77 73.72 73.70 73.80 73.75 73.52 73.29 72.60 72.25 71.87 71.48 71.43 71.45 71.46 71.64 71.95 72.58 73.16 73.38 72.88 74.25 72.67 73.67 70.99 70.38 69.31 68.14 68.05 67.38
74.55 75.36 75.07 74.93 74.14 73.68 73.95 73.86 73.59 73.94 73.89 73.86 73.93 73.82 73.95 74.01 73.89 73.93 73.78 73.34 72.44 72.01 71.55 71.19 70.84 70.65 71.03 71.43 71.88 72.31 72.76 73.31 73.02 72.60 73.72 74.21 73.47 72.53 71.45 70.70 69.13 68.44 68.40
74.78 74.50 74.69 74.86 74.60 74.45 73.96 73.72 73.97 74.48 74.32 73.94 74.01 73.88 73.94 73.84 73.84 73.68 73.30 72.95 72.24 71.70 71.32 70.95 70.97 71.47 71.86 72.16 72.52 72.82 73.05 73.22 73.22 72.68 73.18 73.52 72.03 72.30 71.99 71.69 71.11 70.63 69.53
75.02 74.52 74.13 74.06 74.55 74.15 74.32 74.15 74.10 74.08 74.15 73.94 73.91 73.89 73.80 73.64 73.66 73.55 73.04 72.73 72.22 71.83 71.58 71.68 72.00 72.48 72.82 73.35 73.44 73.69 73.66 74.12 73.51 74.60 74.16 73.75 72.74 72.20 71.79 72.24 71.64 71.08 70.50
74.02 74.70 73.87 73.69 73.42 73.31 74.00 73.95 74.03 74.05 74.20 73.85 73.82 73.87 73.80 73.54 73.59 73.33 73.19 72.90 72.77 72.61 72.66 72.70 72.92 73.42 73.74 74.33 74.63 74.65 74.07 74.45 73.19 75.29 74.16 74.52 73.59 72.29 71.82 72.13 72.76 72.85 71.38
71.85 73.72 73.68 72.94 72.96 72.64 72.42 74.10 74.11 74.07 74.05 74.00 73.87 73.88 73.64 73.12 73.25 74.10 73.75 73.38 72.58 72.57 73.03 73.47 73.96 74.32 75.15 75.15 75.22 75.23 75.05 74.18 73.47 74.15 74.07 74.67 73.87 72.95 72.48 72.39 72.60 73.14 72.48
70.26 72.11 73.03 72.87 72.73 72.74 72.77 73.84 73.29 73.16 73.49 73.54 73.31 74.00 73.48 73.50 73.70 73.17 74.22 73.28 72.88 73.06 73.94 74.40 74.95 75.15 75.10 75.08 75.72 75.43 75.79 74.50 72.63 73.73 74.67 75.88 74.59 73.96 73.99 73.99 73.24 73.27 74.00
70.21 71.52 72.64 73.41 73.88 72.62 72.59 73.59 72.85 72.93 72.92 73.37 74.12 74.95 73.72 73.24 73.07 71.77 71.27 72.84 72.55 72.23 73.90 73.91 75.25 75.30 75.66 74.52 73.53 74.01 73.55 73.05 72.65 73.14 75.21 75.82 74.59 73.70 74.05 74.57 74.51 74.85 74.45
69.59 70.92 72.36 73.65 74.60 73.85 72.62 73.27 73.13 72.92 73.28 73.32 73.99 74.96 74.35 73.52 73.05 72.54 71.72 71.84 73.37 73.94 74.31 74.76 73.59 74.16 74.36 74.51 74.43 73.60 73.36 73.12 72.44 72.88 75.44 75.57 73.69 72.89 72.77 73.22 73.62 74.60 75.28
69.13 70.62 71.68 73.94 75.11 74.85 74.14 73.08 73.23 72.94 73.00 73.41 74.09 74.75 73.70 73.01 72.86 72.71 72.25 71.87 72.02 73.09 73.88 73.60 73.79 74.03 74.09 74.03 73.70 73.88 73.22 73.61 73.26 73.19 73.33 75.97 73.93 73.23 72.73 72.27 72.23 72.70 73.59
70.26 71.16 71.80 73.32 75.76 75.15 75.27 74.97 73.39 73.56 73.56 73.28 73.48 73.58 74.12 73.78 73.79 72.42 73.16 73.34 72.58 73.23 74.05 74.19 74.69 74.78 74.34 74.34 74.36 75.36 74.74 74.61 74.62 74.74 73.75 74.29 74.77 73.73 72.58 71.71 71.02 71.21 72.03
71.69 72.54 72.53 73.46 75.39 75.76 75.23 75.05 74.32 73.37 72.75 73.24 73.78 74.75 74.45 74.88 74.84 74.91 74.12 74.16 74.94 75.67 75.47 75.31 74.88 75.24 74.19 74.03 74.99 73.91 73.98 75.04 74.30 74.37 74.49 74.28 74.21 73.68 72.94 71.85 70.58 69.80 69.73
72.93 73.97 74.17 73.36 74.28 75.28 75.21 74.69 73.52 73.10 72.87 73.90 74.70 74.56 75.15 75.18 75.89 76.01 74.80 74.81 75.87 75.91 75.65 75.05 75.39 73.74 73.74 73.52 73.23 73.42 73.16 73.88 73.74 74.63 74.12 73.92 73.11 72.92 73.81 72.67 70.88 70.30 70.31
73.74 74.21 75.19 75.64 73.79 74.90 76.25 74.61 74.82 76.43 73.60 74.25 75.13 74.87 75.88 75.27 75.33 75.28 75.14 75.57 77.38 75.71 75.37 74.88 74.24 75.84 73.31 73.12 72.36 73.09 72.80 72.63 73.28 72.57 72.68 72.68 72.65 71.86 70.78 72.34 71.65 71.44 71.84
73.88 76.04 76.57 76.13 77.94 77.57 75.57 75.18 73.64 72.77 73.33 73.98 74.71 75.09 76.34 76.10 75.94 76.02 76.09 77.67 76.57 75.07 74.60 74.21 74.32 74.33 72.84 72.34 71.19 70.77 71.82 71.95 71.52 70.91 70.84 70.54 70.18 69.76 69.61 70.45 70.72 70.99 72.56
75.89 76.31 76.46 76.47 77.75 76.43 74.37 72.82 72.34 71.50 72.85 72.49 74.11 76.42 77.16 77.29 77.60 77.48 76.48 76.02 75.45 75.82 74.61 74.68 73.30 73.30 71.29 73.20 68.75 67.80 66.70 70.76 70.72 70.02 69.13 68.43 68.24 67.06 67.64 69.31 69.80 70.82 70.75
76.35 77.18 77.60 77.29 78.52 77.67 75.64 75.84 74.44 73.76 73.37 74.37 75.98 76.96 77.29 77.48 77.44 76.42 76.17 75.41 75.04 73.25 73.77 72.02 72.00 70.18 70.08 69.53 65.20 63.00 60.67 62.90 69.15 67.93 67.38 67.08 67.09 65.78 66.33 68.01 70.21 70.28 70.35
75.75 77.06 76.70 78.28 78.27 77.63 77.42 76.84 76.51 75.26 75.20 73.96 75.32 75.51 76.24 75.94 75.71 75.82 75.27 74.46 74.35 73.50 71.57 70.95 69.48 67.73 64.74 65.93 67.59 62.40 59.31 58.40 60.14 65.46 66.51 63.96 66.36 63.44 65.26 65.97 69.53 68.98 69.23
74.57 75.59 77.21 78.15 78.94 78.29 78.83 76.02 75.89 72.37 71.90 73.87 74.98 75.10 74.08 74.60 74.46 74.38 74.35 73.41 72.38 70.72 69.40 67.16 66.42 66.12 65.08 62.57 62.67 64.05 64.80 63.40 58.89 57.73 61.31 63.55 64.23 63.95 66.13 63.39 65.69 68.55 67.92
73.65 74.49 76.43 78.50 78.81 78.81 78.38 77.42 75.42 74.37 73.85 73.85 74.31 74.52 74.73 73.41 72.97 71.63 71.80 70.89 69.40 67.79 67.75 66.64 65.62 65.02 64.28 62.26 61.08 60.83 63.69 60.67 63.66 58.43 54.77 57.00 60.30 60.82 61.67 61.75 65.03 66.34 67.25
70.83 74.57 75.63 77.35 78.31 78.53 78.49 77.46 77.35 75.59 75.56 73.74 74.35 71.60 71.36 70.95 70.02 69.62 68.94 68.19 67.30 66.60 64.90 64.21 64.72 64.61 64.21 63.37 62.50 61.33 59.18 58.08 57.39 56.58 55.56 57.87 57.18 58.84 59.13 62.89 63.66 64.65 65.74